Weather History for Princeton, BC

Change the Weather History Date:

Thursday, October 13, 2011

  Actual Average Record
Temperature  
Mean Temperature 42 °F -  
Max Temperature 54 °F - - ()
Min Temperature 30 °F - - ()
Degree Days  
Heating Degree Days 23    
Moisture  
Dew Point 30 °F    
Average Humidity 69    
Maximum Humidity 100    
Minimum Humidity 23    
Precipitation  
Precipitation 0.00 in - - ()
Sea Level Pressure  
Sea Level Pressure 30.22 in    
Wind  
Wind Speed 1 mph ()    
Max Wind Speed 6 mph    
Max Gust Speed -    
T = Trace of Precipitation, MM = Missing Value Source: Averaged Metar Reports

Daily Weather History Graph

Daily Weather History Graph

Search for Another Location

Airport:

Trip Planner

Search our weather history database for the weather conditions in past years. The results will help you decide how hot, cold, wet, or windy it might be!

Date:

Astronomy

Oct. 13, 2011 Rise Set
Actual Time 7:19 AM PDT 6:15 PM PDT
Civil Twilight 6:47 AM PDT 6:47 PM PDT
Nautical Twilight 6:10 AM PDT 7:24 PM PDT
Astronomical Twilight 5:33 AM PDT 8:01 PM PDT
Moon 6:37 PM PDT (10/13) 9:11 AM PDT (10/13)
Length of Visible Light 12h 00m
Length of Day
10h 55m
Full, 97% of the Moon is Illuminated
Oct 13
Full
Oct 19
Last Quarter
Oct 26
New
Nov 2
First Quarter
Nov 10
Full

Hourly Weather History & Observations

Time (PDT) Temp. Windchill Dew Point Humidity Pressure Visibility Wind Dir Wind Speed Gust Speed Precip Events Conditions
1:00 AM 34.9 °F - 31.8 °F 89% 30.24 in - WNW 1.2 mph - N/A   Unknown
2:00 AM 34.3 °F - 31.6 °F 90% 30.26 in - Calm Calm - N/A   Unknown
3:00 AM 34.5 °F - 31.5 °F 89% 30.25 in - Calm Calm - N/A   Unknown
4:00 AM 34.0 °F - 31.6 °F 91% 30.26 in - Calm Calm - N/A   Unknown
5:00 AM 32.9 °F - 31.3 °F 94% 30.27 in - Calm Calm - N/A   Unknown
6:00 AM 31.8 °F - 30.7 °F 96% 30.27 in - West 1.2 mph - N/A   Unknown
7:00 AM 31.5 °F - 31.5 °F 100% 30.27 in - Calm Calm - N/A   Unknown
8:00 AM 31.5 °F - 31.6 °F 100% 30.29 in - Calm Calm - N/A   Unknown
9:00 AM 33.8 °F - 31.8 °F 92% 30.30 in - Calm Calm - N/A   Unknown
10:00 AM 36.5 °F - 33.3 °F 88% 30.29 in - Calm Calm - N/A   Unknown
11:00 AM 43 °F - 34 °F 60% 30.27 in - Calm Calm - -  
11:00 AM 43.2 °F - 33.8 °F 70% 30.27 in - Calm Calm - N/A   Unknown
12:00 PM 48.2 °F - 33.6 °F 57% 30.24 in - Calm Calm - N/A   Unknown
1:00 PM 51.1 °F - 28.8 °F 42% 30.22 in - South 5.8 mph - N/A   Unknown
2:00 PM 52.9 °F - 27.7 °F 38% 30.19 in - SW 2.3 mph - N/A   Unknown
3:00 PM 54.7 °F - 25.5 °F 32% 30.17 in - South 1.2 mph - N/A   Unknown
4:00 PM 54.0 °F - 25.5 °F 33% 30.16 in - SW 3.5 mph - N/A   Unknown
5:00 PM 53 °F - 26 °F 23% 30.15 in - SW 3.5 mph - -  
5:00 PM 52.9 °F - 26.1 °F 35% 30.15 in - SW 3.5 mph - N/A   Unknown
6:00 PM 46.0 °F 43.9 °F 31.6 °F 57% 30.16 in - NW 4.6 mph - N/A   Unknown
7:00 PM 44.8 °F - 31.1 °F 59% 30.16 in - WSW 2.3 mph - N/A   Unknown
8:00 PM 40.6 °F 38.6 °F 29.8 °F 65% 30.17 in - WNW 3.5 mph - N/A   Unknown
9:00 PM 38.5 °F - 30.4 °F 73% 30.17 in - Calm Calm - N/A   Unknown
10:00 PM 37.8 °F - 30.9 °F 76% 30.17 in - Calm Calm - N/A   Unknown
11:00 PM 35 °F - 30 °F 74% 30.17 in - Calm Calm - -  
11:00 PM 35.2 °F - 29.8 °F 81% 30.17 in - Calm Calm - N/A   Unknown